Location: Tierra del Sol
(32.6128°N, 116.3319°W)
Time: 11:56:06
(UTC-07:00)

Tiangong 2 - Pass Details

Date: 12 October 2017
Orbit: 388 x 391 km, 42.8° (Epoch: 23 October)

Event Time Altitude Azimuth Distance (km) Brightness Sun altitude
Exits shadow 05:20:49 17° 353° (N) 1,076 3.3 -19.0°
Drops below altitude 10° 05:22:48 10° 31° (NNE) 1,421 4.4 -18.6°
Sets 05:25:23 0° 53° (NE) 2,278 5.9 -18.0°
